User: anonymous   Login
Location: Caltech
(34.1382°N, 118.1253°W)
Time: 00:07:08
(UTC-08:00)
Language:

Cosmos 2251 Rocket - Orbit

View from above orbital plane
View from above orbital plane
View from above satellite
View from above satellite

Ground track
Ground track

The orbit data is extracted from the following two-line orbital elements,

1 22676U 93036B   18054.49414739  .00000022  00000-0  17260-4 0  9997
2 22676  74.0409  82.2499 0017840  44.8780 315.3811 14.33944854291362
Epoch (UTC): 23 February 2018 11:51:34
Eccentricity: 0.0017840
inclination: 74.0409°
perigee height: 766 km
apogee height: 791 km
right ascension of ascending node: 82.2499°
argument of perigee: 44.8780°
revolutions per day: 14.33944854
mean anomaly at epoch: 315.3811°
orbit number at epoch: 29136

The dashed part of the orbit path shows where the satellite is in the earth's shadow,  

DLR